Wind_Speed
7 7 3 1 1 1 4 5 1 3 2 2 2 0 2 4 1 2 4 6 19 23 22 18 14 13 13 13 12 12 12 13 13 11 12 11 11 10 8 9 11 10 12 12 13 13 13 13 14
8 6 1 1 1 3 2 5 5 7 7 8 7 4 3 2 3 6 10 13 22 21 19 19 15 12 13 13 13 12 12 12 13 11 11 10 10 9 9 9 11 10 12 12 13 13 12 13 13
3 4 1 2 2 4 4 7 9 6 2 1 3 5 2 3 4 12 7 18 19 19 18 17 17 16 13 14 13 12 11 10 10 10 10 9 10 10 9 10 11 10 11 11 13 13 12 13 12
1 1 1 2 6 2 4 1 2 3 3 4 6 6 4 3 12 6 17 18 18 17 17 18 18 18 16 14 14 11 9 9 8 9 10 9 10 9 10 11 10 11 11 11 11 12 11 10 8
1 1 2 4 3 1 2 4 5 5 2 2 0 4 5 3 5 15 20 18 18 17 16 17 18 16 14 13 12 10 9 8 9 9 10 10 9 10 10 11 10 11 10 10 10 9 9 8 5
0 0 2 3 3 1 2 3 8 4 2 4 4 5 5 4 9 16 18 16 14 15 14 14 15 14 14 13 12 9 9 8 9 9 9 9 10 10 11 10 10 10 9 7 8 6 6 5 3
2 2 2 2 1 1 2 4 6 4 4 1 8 4 3 7 10 14 16 14 13 11 12 13 12 11 11 11 10 9 8 7 9 9 7 10 9 10 10 9 8 8 8 6 5 3 3 2 1
1 1 1 1 2 2 2 2 6 4 2 8 3 3 5 12 15 14 14 12 11 10 12 12 13 12 12 10 8 8 7 8 9 9 8 9 10 10 9 8 7 7 7 6 5 3 1 0 2
1 1 2 0 2 2 1 4 3 2 9 3 1 3 6 21 18 16 15 12 12 9 10 12 12 12 11 10 8 6 3 4 7 7 7 9 9 8 7 7 6 5 5 4 4 2 1 2 4
2 1 2 2 2 2 2 5 9 4 7 2 4 7 20 21 19 18 17 15 15 14 12 12 12 11 10 8 7 7 6 5 7 9 9 10 8 6 6 6 5 4 3 3 3 2 2 3 5
3 3 2 1 4 1 1 4 5 7 7 7 7 15 18 19 17 17 16 16 17 15 12 12 11 11 10 10 9 10 9 5 8 9 9 9 7 6 5 4 3 2 1 0 2 3 4 5 7
3 6 5 2 2 4 5 4 4 8 1 3 12 17 17 15 16 17 17 16 16 16 14 14 11 11 11 12 13 12 9 8 11 9 10 8 6 5 4 3 3 1 0 2 4 5 5 7 8
4 4 2 2 1 2 2 3 2 8 3 11 16 16 15 14 15 15 15 15 16 16 16 14 13 14 13 13 14 13 10 7 9 9 9 7 5 5 5 3 3 1 2 3 5 5 4 6 8
3 4 1 3 2 2 3 3 3 2 9 13 15 15 13 14 15 14 14 14 16 16 17 17 17 15 14 13 10 17 10 10 9 7 6 7 6 7 5 4 2 1 4 4 5 5 5 8 9
1 0 1 0 2 1 2 5 9 6 11 14 14 13 12 13 15 15 15 14 15 15 15 17 17 15 14 14 15 18 11 10 8 6 6 10 8 4 4 4 3 1 3 3 6 6 6 8 6
3 2 3 1 3 2 3 5 2 11 13 14 15 12 12 13 14 15 14 14 13 13 15 15 15 16 16 14 16 17 14 14 11 7 8 7 4 4 4 4 2 3 1 2 6 4 6 7 7
2 3 4 4 4 1 3 6 4 12 13 14 14 14 13 12 14 16 16 15 15 16 15 15 14 15 15 15 14 14 16 15 10 7 8 5 4 3 3 2 3 2 1 3 4 3 6 7 6
1 3 3 5 1 6 8 16 11 9 14 15 15 14 14 14 17 18 18 17 16 16 16 16 15 15 15 14 13 11 13 14 11 8 8 6 6 5 4 1 4 1 1 3 1 3 4 4 6
1 5 9 6 5 6 11 15 13 10 15 15 15 16 16 19 15 18 18 18 17 16 16 17 17 16 17 14 15 12 14 17 13 9 9 8 8 9 7 4 3 1 0 0 1 3 4 3 7
3 7 12 4 2 7 9 15 13 13 17 18 18 18 19 16 15 18 21 20 20 20 19 18 18 19 20 18 20 14 18 17 13 10 12 10 12 12 10 9 5 2 1 3 1 2 3 2 5
6 10 11 6 6 7 7 8 6 6 14 16 18 20 19 19 19 17 22 25 23 22 22 22 21 21 21 21 17 18 14 12 10 11 12 11 12 14 13 11 8 5 2 3 1 2 2 4 4
16 10 13 11 4 6 2 6 6 3 9 15 19 21 21 21 20 17 20 23 27 27 23 21 23 23 24 24 18 19 18 16 16 11 12 11 11 11 13 12 11 9 6 6 3 4 4 4 4
9 4 5 2 2 4 5 5 6 2 8 14 18 22 24 23 22 21 23 28 30 25 26 25 25 25 24 27 24 20 19 15 10 10 10 11 10 12 13 13 12 12 9 8 8 6 6 5 6
4 5 2 4 2 5 5 6 8 6 10 10 6 17 22 23 22 21 29 24 24 23 23 24 25 28 27 27 28 25 21 18 14 12 10 11 10 11 15 15 15 14 12 11 9 10 9 8 8
6 7 4 5 4 7 2 6 14 13 16 14 15 9 15 20 22 21 20 23 24 26 26 25 25 26 27 27 27 28 25 21 18 17 15 12 11 12 13 16 17 17 15 13 12 12 12 11 10
11 11 5 7 7 5 1 6 5 11 11 10 11 9 11 17 19 21 21 27 28 30 29 28 27 28 28 27 29 30 29 23 21 19 17 14 12 11 13 15 16 16 15 15 14 13 13 11 12
7 6 1 3 1 4 4 7 11 16 14 7 6 5 10 14 18 20 21 27 27 28 30 32 30 30 29 29 27 28 28 25 23 24 22 19 19 14 12 14 14 15 15 16 17 15 15 14 14
7 10 4 2 9 11 5 6 9 11 14 10 6 6 9 12 16 18 18 27 29 31 33 29 29 29 30 27 26 26 27 29 27 25 25 23 22 19 16 14 16 17 18 17 15 15 16 16 15
5 4 2 1 3 9 11 8 6 11 13 11 11 7 9 13 16 17 17 26 28 26 27 29 28 28 29 27 29 27 24 24 24 24 26 26 23 23 21 19 18 17 16 15 15 17 16 15 16
5 10 9 8 5 2 3 10 5 12 9 9 14 10 8 12 14 15 16 23 25 29 29 29 29 28 32 25 26 26 23 22 23 23 22 26 25 24 24 22 22 22 21 20 18 17 16 16 16
Wind_Direction
133 141 142 193 198 76 93 50 30 120 113 51 36 122 144 30 304 17 129 160 152 153 158 162 156 146 154 146 140 135 132 133 132 134 133 133 129 130 129 125 117 116 105 109 106 106 107 109 108
140 151 146 312 150 87 54 17 73 85 110 105 97 97 57 68 54 115 139 147 152 151 155 157 159 147 164 155 149 144 143 142 141 142 141 136 132 143 135 128 116 119 115 110 110 110 110 107 109
112 187 271 74 51 90 97 81 106 104 115 109 104 61 49 31 92 140 141 147 150 150 152 157 158 154 173 161 152 150 147 147 147 142 144 139 136 141 134 124 121 120 118 112 111 113 109 108 108
199 157 95 74 89 86 107 138 84 140 109 77 109 94 96 355 142 145 145 147 150 151 153 160 158 166 170 164 165 164 159 149 141 150 142 139 141 137 137 126 126 124 119 117 114 115 115 113 110
84 180 52 110 104 161 228 255 192 177 109 85 206 122 101 85 121 142 150 152 155 155 161 160 160 163 168 169 168 165 170 156 149 136 140 142 139 138 133 129 123 114 119 117 118 112 115 109 91
132 224 58 104 98 260 255 199 173 156 105 119 115 126 122 124 138 149 156 156 157 155 157 165 157 163 165 175 171 175 167 157 147 145 139 145 146 137 126 121 119 118 119 117 120 124 114 104 80
24 37 58 144 131 125 49 137 164 144 127 163 136 124 107 156 150 151 154 155 151 154 154 155 151 157 167 170 166 172 176 167 156 148 150 143 145 135 128 127 123 117 115 109 108 113 122 142 126
55 42 52 294 157 65 89 137 160 163 129 128 158 180 169 168 151 149 149 152 151 154 155 155 157 159 164 160 163 170 171 168 155 154 151 147 135 136 131 133 126 116 107 101 103 106 127 18 291
118 38 7 106 186 162 154 172 119 104 142 151 40 146 139 148 147 149 151 158 157 159 156 159 156 157 164 156 155 164 168 169 162 158 158 144 139 134 126 145 125 117 114 115 120 124 218 289 297
227 210 234 200 187 212 131 160 151 158 155 157 104 101 137 147 156 161 168 171 169 170 165 164 160 155 150 153 147 153 169 167 178 166 169 160 145 135 139 142 136 145 145 135 99 39 339 321 302
158 248 195 251 193 225 178 149 173 166 201 199 180 149 151 158 170 174 181 181 177 176 174 171 164 162 157 149 138 147 155 191 193 171 165 159 155 146 151 155 147 155 145 50 1 341 327 315 307
251 257 242 322 33 197 227 162 191 190 330 177 150 154 158 172 181 186 188 186 182 181 181 176 167 163 151 146 140 138 167 197 181 157 161 164 162 162 169 171 166 167 187 354 345 327 320 313 312
243 310 199 223 351 201 187 218 255 210 123 134 143 159 172 181 187 195 193 191 190 192 190 185 176 171 159 155 160 168 174 188 166 149 156 160 172 170 165 169 159 149 353 333 333 336 333 325 323
318 270 287 28 93 133 221 219 251 181 149 144 160 170 179 186 192 190 193 192 193 196 195 193 190 182 172 165 162 178 180 184 175 167 177 183 181 162 164 160 160 33 352 349 352 345 340 328 318
67 349 270 333 164 147 182 232 229 162 163 163 176 176 184 194 198 203 200 200 192 195 196 195 192 192 192 181 180 195 198 198 187 177 168 158 162 177 164 183 176 339 350 360 354 337 335 339 335
339 22 343 105 186 134 207 288 263 165 168 179 183 187 190 202 209 209 205 205 194 187 188 190 195 196 195 194 194 200 200 197 190 189 169 172 173 184 170 139 172 280 278 320 345 344 349 349 347
31 306 296 310 194 153 229 288 56 179 189 192 193 196 200 200 209 212 209 206 202 196 188 189 188 187 188 191 195 198 197 195 199 197 184 184 186 190 173 204 226 151 360 328 316 327 352 350 343
270 302 270 281 181 227 249 261 260 189 203 209 201 203 205 210 211 207 208 207 202 201 197 196 196 192 190 188 193 199 199 203 206 201 206 204 202 196 180 156 151 176 31 6 310 314 332 359 352
244 279 277 275 259 248 255 272 280 218 210 215 215 208 212 217 210 208 207 206 201 199 194 195 192 194 188 189 190 199 207 207 211 219 209 210 202 200 201 194 193 173 213 176 40 324 328 328 354
235 286 282 286 211 223 294 280 273 221 218 213 210 214 216 219 207 206 203 202 204 199 197 194 197 195 197 201 195 198 206 210 220 225 213 221 224 212 217 214 219 242 232 213 213 351 338 321 4
246 263 278 292 318 252 285 270 268 226 229 224 222 218 220 219 213 205 202 202 203 201 200 199 201 198 200 202 201 202 203 207 211 214 216 227 222 215 221 220 225 238 227 213 231 274 343 336 351
261 262 264 265 293 308 339 297 277 268 239 231 231 222 218 216 216 212 204 203 205 206 201 202 203 202 202 205 200 201 201 204 214 205 217 227 214 214 217 223 233 239 248 251 245 260 290 312 320
247 208 238 250 279 281 219 262 280 273 264 247 232 228 223 217 212 208 206 206 206 200 198 200 204 205 201 206 208 209 212 211 217 217 217 218 220 220 224 226 230 237 250 256 257 259 270 286 299
117 199 110 76 165 241 229 232 281 264 253 278 251 228 226 217 210 211 210 206 206 200 197 197 199 208 208 208 211 213 214 214 217 228 233 229 224 225 235 231 231 236 243 249 260 262 270 275 280
211 225 231 223 213 269 86 217 259 274 268 263 281 292 232 213 209 207 200 194 196 197 196 196 198 204 208 211 212 217 222 223 224 225 228 227 230 233 240 235 235 236 243 247 252 259 263 267 268
201 224 227 255 248 276 128 238 250 254 278 276 269 271 239 207 205 200 196 195 193 194 194 195 197 203 205 208 214 221 227 227 228 227 223 232 237 237 246 243 237 236 241 245 249 254 258 253 264
168 202 277 210 98 248 265 273 272 266 275 263 284 244 222 209 203 199 195 192 191 191 196 197 198 204 206 208 210 216 223 224 223 224 229 235 239 243 255 241 237 242 248 253 249 250 255 251 254
225 143 195 208 255 263 238 271 261 275 283 292 271 261 234 209 203 197 193 193 194 195 198 200 202 203 205 207 211 213 216 224 228 231 231 231 235 241 245 247 247 253 254 258 246 252 256 255 261
168 207 77 250 256 273 272 258 220 250 266 285 294 289 268 219 201 196 193 196 195 197 198 201 201 200 200 206 210 211 213 217 224 228 233 235 240 242 244 246 247 248 250 253 251 254 257 258 261
246 260 215 248 213 235 300 270 251 245 267 270 278 288 280 238 206 195 192 191 192 196 197 201 204 201 207 205 208 214 216 217 224 229 232 237 241 245 244 246 246 247 252 256 256 256 254 254 258
Height
790 791 791 791 799 794 805 804 789 796 797 792 793 794 798 799 803 817 810 812 815 819 822 825 825 827 831 832 835 836 837 838 838 839 839 840 841 842 842 843 844 845 845 847 847 848 849 849 850
790 791 792 791 801 820 818 798 802 796 794 791 793 796 800 806 804 809 811 814 817 820 823 824 826 828 832 834 836 837 838 839 839 840 840 842 842 843 843 844 846 847 848 849 849 850 851 852 852
790 791 791 799 803 814 814 801 799 796 792 792 797 796 802 807 808 810 812 815 818 821 823 826 827 827 831 835 837 838 839 840 841 840 842 843 844 845 846 847 848 849 850 851 851 851 853 853 854
791 791 792 801 812 807 800 795 792 796 794 793 796 805 804 806 809 810 813 816 819 821 824 826 827 829 833 836 838 839 840 840 841 843 843 844 845 846 848 849 850 852 853 853 853 853 854 856 856
790 790 801 807 809 802 795 790 789 795 797 798 797 807 807 809 810 811 815 817 820 822 824 826 827 830 832 836 837 839 840 842 842 843 844 846 846 847 849 851 852 854 855 855 855 856 856 857 858
790 792 808 813 808 798 791 786 788 793 796 799 801 804 807 811 812 814 816 819 821 823 825 817 829 831 833 836 836 839 840 841 842 844 845 847 848 849 851 853 855 856 857 857 858 858 859 859 859
792 798 813 811 809 803 793 785 791 793 796 799 797 807 809 811 813 815 818 820 822 823 824 827 830 832 834 836 837 839 840 842 843 844 846 847 849 851 853 855 856 858 859 860 860 860 861 860 859
789 797 807 807 805 804 788 787 786 791 798 794 797 804 811 808 813 817 820 822 824 824 825 828 830 833 835 836 838 840 842 843 845 847 847 848 850 853 855 856 858 860 860 861 861 861 861 861 860
790 803 808 803 803 797 785 790 789 788 792 794 797 797 801 808 813 817 820 822 824 826 827 829 831 833 835 836 840 841 842 845 847 847 849 850 852 855 857 857 859 861 861 861 861 861 861 861 859
794 805 800 790 788 791 787 787 788 793 795 798 799 801 804 808 813 815 818 820 823 826 828 831 832 834 836 838 840 842 844 844 846 848 849 851 853 855 857 858 860 861 861 861 861 861 861 860 860
794 800 790 786 784 786 787 788 783 790 798 791 794 800 804 808 812 815 817 820 822 826 829 830 833 834 837 840 841 842 844 845 848 846 849 852 854 856 858 859 860 861 861 862 862 862 861 860 859
797 786 787 784 783 786 789 785 788 787 787 784 790 797 803 806 810 812 815 819 822 826 829 830 833 835 837 840 842 840 846 849 850 850 851 852 855 856 857 859 860 860 861 861 861 861 860 859 859
792 786 785 781 782 784 786 788 788 788 785 786 792 798 802 805 809 812 815 819 822 825 828 831 833 835 838 840 842 844 848 851 851 851 852 853 855 856 858 858 859 860 860 860 860 860 860 858 857
785 785 784 782 785 786 789 789 788 785 785 789 793 796 800 804 807 811 814 817 820 823 827 830 833 835 838 840 841 845 848 851 852 852 853 853 854 856 857 858 859 859 859 859 859 859 859 858 857
783 791 786 785 786 787 786 795 791 783 785 790 793 794 799 802 806 809 811 815 819 822 826 828 832 835 837 840 842 845 848 850 851 852 853 854 855 856 856 858 858 859 859 859 859 859 858 858 856
790 791 803 788 788 787 788 796 784 783 786 790 791 794 797 800 803 806 810 814 817 821 823 827 830 833 836 839 842 844 847 849 851 851 853 854 855 855 856 857 858 859 859 859 859 858 858 858 856
798 807 805 795 786 788 791 791 784 783 784 787 790 791 793 797 801 804 807 811 815 818 821 824 828 832 835 838 841 844 846 848 850 851 852 853 854 855 856 857 858 858 859 859 859 858 858 857 856
807 806 803 802 791 791 793 791 780 783 784 783 784 787 790 791 793 799 803 807 811 815 818 822 826 830 833 836 840 843 845 847 849 850 851 853 854 855 856 857 857 858 859 859 858 858 858 857 855
798 801 803 797 785 792 788 784 777 777 781 783 781 784 784 784 790 795 800 804 808 812 815 819 822 826 830 834 837 840 842 844 847 849 850 852 853 855 856 857 857 857 858 859 859 859 858 858 856
798 802 797 792 788 791 785 781 769 771 771 772 776 777 778 780 784 790 795 799 803 807 811 815 819 823 827 831 834 837 840 843 845 847 849 850 851 853 855 856 857 857 858 858 858 859 858 858 857
796 799 796 802 789 783 789 781 773 765 767 767 766 768 771 773 777 783 788 791 798 802 807 810 815 819 824 828 832 835 838 842 843 845 846 848 849 851 853 854 855 856 857 858 858 858 858 858 858
799 784 790 795 799 805 789 799 773 767 767 765 761 762 762 765 769 775 782 787 791 795 802 806 811 815 820 825 830 832 835 838 840 843 845 846 847 849 851 853 854 855 856 856 857 857 857 857 858
788 783 789 791 796 800 794 800 771 771 764 754 750 750 751 754 761 766 772 777 782 791 795 801 806 811 816 820 825 829 833 835 838 840 842 843 845 846 848 850 852 853 854 854 855 855 856 856 856
776 787 792 794 798 809 786 792 772 763 754 740 737 738 741 746 751 759 764 773 780 786 792 796 801 806 811 816 820 824 828 831 835 837 839 841 842 844 845 847 848 850 851 852 853 853 854 855 855
782 788 801 809 809 802 794 795 769 747 741 741 735 734 734 738 743 750 759 767 775 780 785 790 795 801 806 811 815 819 823 828 830 833 837 838 839 840 842 843 845 846 847 848 849 850 850 851 852
779 776 793 817 808 794 799 789 765 735 729 730 729 729 729 731 735 742 749 757 764 772 779 784 788 794 800 806 809 814 818 824 827 830 832 834 836 837 838 839 841 842 843 844 845 845 846 847 848
780 784 769 788 806 802 778 766 751 732 729 725 724 728 728 728 730 736 745 751 758 765 771 775 781 786 793 798 804 808 812 817 820 823 826 829 831 832 833 835 837 839 840 840 841 842 842 842 842
763 761 782 785 802 803 782 788 770 741 730 721 725 725 724 725 729 732 739 745 751 756 762 770 776 779 785 793 798 802 806 811 815 819 821 823 826 828 829 831 833 834 836 836 836 837 838 837 837
767 767 777 776 780 785 788 769 737 737 726 725 719 722 720 720 723 727 735 741 746 752 760 765 771 776 781 786 790 796 801 806 811 814 816 819 822 824 825 827 828 829 830 831 832 832 833 832 832
746 753 758 775 787 786 786 766 723 722 719 723 719 718 717 716 717 722 729 737 742 746 752 759 765 769 773 780 786 790 796 801 806 808 811 813 816 819 821 822 823 823 825 826 827 827 828 827 827